#timestamp,LO_Frequency,Hit,StdDev 
1592416815.4,286046996.9,N
1592416835.2,286046999.0,N
1592416855.1,286046997.0,N
1592416856.0,286046997.0,N
1592416875.8,286046997.8,N
1592416895.6,286046997.2,N
1592416915.5,286046996.5,N
1592416935.3,286046997.3,N
1592416955.2,286046997.9,N
1592416975.9,286046997.4,N
1592416995.7,286046997.8,N
1592417015.6,286046996.5,N
1592417035.4,286046998.6,N
1592417055.2,286047000.3,N
1592417075.1,286046999.7,N
1592417076.0,286046999.7,N
1592417095.8,286047002.8,N
1592417115.7,286046999.7,N
1592417135.5,286047000.1,N
1592417155.3,286046999.8,N
1592417175.2,286047002.6,N
1592417195.0,286047001.8,N
1592417195.9,286047001.8,N
1592417215.8,286047002.4,N
1592417235.6,286047000.3,N
1592417255.4,286047001.9,N
1592417275.3,286047002.4,N
1592417295.1,286046999.8,N
1592417315.8,286046998.1,N
1592417335.7,286046998.9,N
1592417355.5,286046998.4,N
1592417375.4,286046998.5,N
1592417395.2,286047002.7,N
1592417415.0,286046999.8,N
1592417415.9,286046999.8,N
1592417435.8,286047000.0,N
1592417455.6,286046999.8,N
1592417475.5,286047000.4,N
1592417495.3,286047000.9,N
1592417515.1,286046998.9,N
1592417535.9,286046999.6,N
1592417555.7,286046997.1,N
1592417575.5,286046997.6,N
1592417595.4,286046997.8,N
1592417615.2,286046997.4,N
1592417635.1,286046997.3,N
1592417636.0,286046997.3,N
1592417655.8,286046998.9,N
1592417675.6,286047001.1,N
1592417695.5,286047000.9,N
1592417715.3,286047002.6,N
1592417735.1,286047003.9,N
1592417755.9,286047004.2,N
1592417775.7,286047002.6,N
1592417795.6,286047000.2,N
1592417815.4,286046998.5,N
1592417835.2,286046998.8,N
1592417855.1,286046998.7,N
1592417856.0,286046998.7,N
1592417875.8,286046998.5,N
1592417895.6,286047001.0,N
1592417915.5,286046999.8,N
1592417935.3,286047001.9,N
1592417955.1,286047002.5,N
1592417975.9,286047001.4,N
1592417995.7,286047003.9,N
1592418015.6,286047003.5,N
1592418035.4,286047003.0,N
1592418055.2,286047005.7,N
1592418075.1,286047003.0,N
1592418076.0,286047003.0,N
1592418095.8,286047005.9,N
1592418115.7,286047005.2,N
1592418135.5,286047005.2,N
1592418155.3,286047004.6,N
1592418175.2,286047004.1,N
1592418195.0,286047003.8,N
1592418195.9,286047003.8,N
1592418215.7,286047006.0,N
1592418235.6,286047005.0,N
1592418255.4,286047004.9,N
1592418275.3,286047005.5,N
1592418295.1,286047007.5,Y
1592418315.8,286047003.7,P
1592418335.7,286047005.5,P
1592418355.5,286047005.6,P
1592418375.4,286047003.0,N
1592418395.2,286047004.0,Y
1592418415.0,286046998.4,P
1592418415.9,286046998.4,N
1592418435.8,286046998.3,N
1592418455.6,286046997.0,N
1592418475.4,286046996.6,N
1592418495.3,286046996.6,N
1592418515.1,286046996.8,N
1592418535.8,286046998.3,N
1592418555.7,286046996.5,N
1592418575.5,286046998.7,N
1592418595.4,286047000.7,N
1592418615.2,286047002.8,N
1592418635.0,286047002.4,N
1592418635.9,286047002.4,N
1592418655.8,286047000.8,N
1592418675.6,286047001.2,N
1592418695.4,286046999.9,N
1592418715.3,286046999.9,N
1592418735.1,286047000.4,N
1592418755.9,286047002.8,N
1592418775.7,286047002.7,N
1592418795.5,286047002.5,N
1592418815.4,286047001.1,N
1592418835.2,286047000.7,N
1592418855.0,286047002.8,N
1592418855.9,286047002.8,N
1592418875.8,286046999.8,N
1592418895.6,286047002.1,N
1592418915.5,286047002.5,N
1592418935.3,286047002.4,N
1592418955.1,286047000.4,N
1592418975.9,286046999.9,N
1592418995.7,286047000.8,N
1592419015.5,286047000.5,N
1592419035.4,286046999.9,N
1592419055.2,286047000.2,N
1592419075.1,286046999.7,N
1592419076.0,286046999.7,N
1592419095.8,286047002.2,N
1592419115.6,286047004.1,Y
1592419135.5,286047001.5,P
1592419155.3,286047000.5,N
1592419175.1,286046998.1,P
1592419195.9,286046999.2,N
1592419215.7,286046998.7,N
1592419235.6,286047001.2,N
1592419255.4,286047001.2,N
1592419275.2,286046998.9,N
1592419295.1,286046999.2,N
1592419296.0,286046999.2,N
1592419315.8,286046998.9,N
1592419335.6,286046999.6,N
1592419355.5,286046999.0,N
1592419375.3,286046997.0,N
1592419395.2,286046997.4,N
1592419415.9,286046997.6,N
1592419465.8,286046991.9,E
1592419475.7,286046995.0,N
1592419495.5,286046999.0,P
1592419515.4,286046998.9,N
1592419535.2,286046999.3,N
1592419555.0,286047001.2,N
1592419555.9,286047001.2,N
1592419575.8,286047000.0,N
1592419595.6,286046999.9,N
1592419615.5,286047000.9,N
1592419635.3,286047002.2,N
1592419655.1,286047001.6,N
1592419675.9,286047000.1,N
1592419695.7,286047001.9,N
1592419715.5,286047004.3,N
1592419735.4,286047006.0,N
1592419755.2,286047003.6,N
1592419775.1,286047004.8,N
1592419776.0,286047004.8,N
1592419795.8,286047007.3,N
1592419815.6,286047009.2,Y
1592419835.5,286047004.6,P
1592419855.3,286047003.0,N
1592419875.1,286047007.5,P
1592419895.9,286047007.5,Y
1592419915.7,286047002.4,P
1592419935.6,286047004.0,P
1592419955.4,286047001.9,N
1592419975.2,286046999.8,N
1592419995.1,286047002.5,N
1592419996.0,286047002.5,N
1592420015.8,286047002.7,N
1592420035.6,286047001.7,N
1592420055.5,286047004.0,Y
1592420075.3,286046998.3,P
1592420095.2,286047000.4,N
1592420115.9,286047002.6,N
1592420135.7,286047001.4,N
1592420155.6,286047003.7,N
1592420175.4,286047001.6,N
1592420195.2,286047002.1,N
1592420215.1,286047001.1,N
1592420216.0,286047001.1,N
1592420235.8,286047000.8,N
1592420255.7,286047000.9,N
1592420275.5,286046996.6,N
1592420295.3,286046997.6,N
1592420315.2,286046996.3,N
1592420335.0,286046994.3,N
1592420335.9,286046994.3,N
1592420355.8,286046991.9,N
1592420375.6,286046992.5,N
1592420395.4,286046994.8,N
